Date String (YYYY-MM-DD hh:mm:ss) UTC,Instrument flags,Ambient pressure (hPa),Sample flow (lpm),Bypass flow (lpm),Sample temperature (°C),Ambient temperature (°C),ASC tube jacket temperature (°C),LED temperature (°C),Box temperature (°C),Sample RH (%),Span deviation,Mass concentration (μg/m³),Mass concentration (μg/m³),Mass concentration (μg/m³)
DateTimeUTC,F1_M11,P_M11,Q1_M11,Q2_M11,T1_M11,T2_M11,T3_M11,T4_M11,T5_M11,U1_M11,ZSPAN_M11,X0_M11,X2_M11,X1_M11
2022-06-12 07:00:00,,0821.4,5.00,0.00,29.3,28.5,00.0,38.1,31.3,16.6,0000.0,0014.37,0004.97,0003.64
2022-06-12 07:01:00,,0821.5,4.99,0.00,29.3,28.5,00.0,38.1,31.3,16.3,0000.0,0014.77,0004.95,0003.65
2022-06-12 07:02:00,,0821.5,5.00,0.00,29.4,28.5,00.0,38.1,31.3,16.3,0000.0,0014.19,0004.89,0003.64
2022-06-12 07:03:00,,0821.4,5.00,0.00,29.3,27.7,00.0,38.1,31.1,16.3,0000.0,0014.12,0004.85,0003.64
2022-06-12 07:04:00,,0821.4,5.00,0.00,29.3,27.2,00.0,38.0,31.0,16.4,0000.0,0013.94,0004.79,0003.64
2022-06-12 07:05:00,,0821.4,5.00,0.00,29.2,27.2,00.0,38.0,30.9,16.2,0000.0,0013.83,0004.81,0003.64
2022-06-12 07:06:00,,0821.4,4.98,0.00,29.1,27.2,00.0,38.0,30.9,16.5,0000.0,0013.42,0004.81,0003.64
2022-06-12 07:07:00,,0821.4,5.00,0.00,29.1,27.3,00.0,38.0,30.9,16.4,0000.0,0013.21,0004.78,0003.65
2022-06-12 07:08:00,,0821.4,5.00,0.00,29.1,27.4,00.0,38.0,30.9,16.4,0000.0,0013.18,0004.79,0003.63
2022-06-12 07:09:00,,0821.4,5.01,0.00,29.1,27.6,00.0,38.0,31.0,16.3,0000.0,0013.19,0004.77,0003.63
2022-06-12 07:10:00,,0821.4,5.01,0.00,29.1,27.7,00.0,38.0,31.0,16.3,0000.0,0013.52,0004.80,0003.62
2022-06-12 07:11:00,,0821.4,5.00,0.00,29.1,27.8,00.0,38.0,31.0,16.1,0000.0,0012.27,0004.87,0003.61
2022-06-12 07:12:00,,0821.4,5.00,0.00,29.1,27.9,00.0,38.0,31.1,16.0,0000.0,0011.82,0004.92,0003.62
2022-06-12 07:13:00,,0821.4,4.98,0.00,29.2,28.0,00.0,38.0,31.1,15.8,0000.0,0012.65,0004.93,0003.62
2022-06-12 07:14:00,,0821.4,5.00,0.00,29.2,28.1,00.0,38.0,31.1,15.9,0000.0,0012.71,0004.94,0003.62
2022-06-12 07:15:00,,0821.4,5.00,0.00,29.2,28.2,00.0,38.0,31.2,16.0,0000.0,0012.68,0004.97,0003.61
2022-06-12 07:16:00,,0821.4,4.99,0.00,29.2,28.3,00.0,38.1,31.2,16.0,0000.0,0012.57,0004.99,0003.61
2022-06-12 07:17:00,,0821.4,5.00,0.00,29.3,28.3,00.0,38.1,31.2,16.0,0000.0,0012.11,0005.00,0003.61
2022-06-12 07:18:00,,0821.4,5.00,0.00,29.3,28.4,00.0,38.1,31.3,16.0,0000.0,0012.20,0005.03,0003.60
2022-06-12 07:19:00,,0821.3,4.98,0.00,29.3,28.4,00.0,38.1,31.3,16.0,0000.0,0012.84,0005.04,0003.61
2022-06-12 07:20:00,,0821.3,5.00,0.00,29.3,28.5,00.0,38.1,31.3,15.9,0000.0,0013.58,0005.09,0003.61
2022-06-12 07:21:00,,0821.2,5.00,0.00,29.4,28.5,00.0,38.1,31.3,15.9,0000.0,0014.28,0005.10,0003.61
2022-06-12 07:22:00,,0821.2,5.00,0.00,29.4,28.6,00.0,38.2,31.4,15.9,0000.0,0015.44,0005.07,0003.62
2022-06-12 07:23:00,,0821.1,5.02,0.00,29.4,28.4,00.0,38.2,31.3,15.8,0000.0,0015.30,0005.06,0003.62
2022-06-12 07:24:00,,0821.2,5.00,0.00,29.4,27.7,00.0,38.1,31.2,15.8,0000.0,0015.67,0005.08,0003.63
2022-06-12 07:25:00,,0821.2,4.99,0.00,29.3,27.3,00.0,38.1,31.0,15.8,0000.0,0015.81,0005.10,0003.61
2022-06-12 07:26:00,,0821.2,5.01,0.00,29.2,27.3,00.0,38.1,30.9,15.9,0000.0,0015.93,0005.14,0003.62
2022-06-12 07:27:00,,0821.2,5.00,0.00,29.2,27.3,00.0,38.1,30.9,16.0,0000.0,0016.05,0005.13,0003.61
2022-06-12 07:28:00,,0821.2,5.00,0.00,29.1,27.4,00.0,38.1,30.9,16.1,0000.0,0015.88,0005.08,0003.61
2022-06-12 07:29:00,,0821.2,5.01,0.00,29.1,27.5,00.0,38.1,31.0,16.0,0000.0,0015.78,0005.06,0003.61
2022-06-12 07:30:00,,0821.1,5.00,0.00,29.1,27.6,00.0,38.1,31.0,16.1,0000.0,0015.80,0005.04,0003.62
2022-06-12 07:31:00,,0821.1,5.01,0.00,29.1,27.7,00.0,38.0,31.0,16.3,0000.0,0014.85,0005.00,0003.62
2022-06-12 07:32:00,,0821.1,4.99,0.00,29.1,27.9,00.0,38.1,31.1,16.1,0000.0,0013.81,0004.95,0003.62
2022-06-12 07:33:00,,0821.1,5.00,0.00,29.2,28.0,00.0,38.1,31.1,16.3,0000.0,0012.37,0004.94,0003.62
2022-06-12 07:34:00,,0821.1,5.00,0.00,29.2,28.0,00.0,38.1,31.1,16.4,0000.0,0012.45,0004.89,0003.61
2022-06-12 07:35:00,,0821.1,4.99,0.00,29.2,28.1,00.0,38.1,31.1,16.3,0000.0,0011.51,0004.88,0003.61
2022-06-12 07:36:00,,0821.1,5.00,0.00,29.2,28.2,00.0,38.1,31.2,16.3,0000.0,0011.34,0004.91,0003.62
2022-06-12 07:37:00,,0821.1,5.01,0.00,29.2,28.3,00.0,38.1,31.2,16.2,0000.0,0011.15,0004.85,0003.62
2022-06-12 07:38:00,,0821.1,4.99,0.00,29.3,28.3,00.0,38.1,31.2,16.2,0000.0,0011.10,0004.86,0003.63
2022-06-12 07:39:00,,0821.1,5.01,0.00,29.3,28.4,00.0,38.1,31.2,16.3,0000.0,0011.89,0004.90,0003.63
2022-06-12 07:40:00,,0821.1,5.01,0.00,29.3,28.4,00.0,38.1,31.3,16.2,0000.0,0012.30,0004.90,0003.64
2022-06-12 07:41:00,,0821.2,5.01,0.00,29.3,28.5,00.0,38.2,31.3,16.0,0000.0,0011.79,0004.90,0003.63
2022-06-12 07:42:00,,0821.2,4.98,0.00,29.4,28.5,00.0,38.2,31.3,15.9,0000.0,0011.90,0004.89,0003.63
2022-06-12 07:43:00,,0821.2,5.01,0.00,29.4,28.5,00.0,38.2,31.4,16.2,0000.0,0011.99,0004.90,0003.63
2022-06-12 07:44:00,,0821.1,5.00,0.00,29.4,28.6,00.0,38.2,31.4,16.4,0000.0,0012.30,0004.91,0003.64
2022-06-12 07:45:00,,0821.1,5.00,0.00,29.4,28.3,00.0,38.2,31.3,16.3,0000.0,0011.98,0004.92,0003.64
2022-06-12 07:46:00,,0821.1,5.00,0.00,29.4,27.6,00.0,38.1,31.1,16.4,0000.0,0011.85,0004.90,0003.64
2022-06-12 07:47:00,,0821.1,4.99,0.00,29.3,27.3,00.0,38.1,31.0,16.4,0000.0,0011.93,0004.86,0003.64
2022-06-12 07:48:00,,0821.1,4.99,0.00,29.2,27.2,00.0,38.1,31.0,16.3,0000.0,0012.19,0004.92,0003.64
2022-06-12 07:49:00,,0821.1,5.01,0.00,29.2,27.3,00.0,38.1,30.9,16.4,0000.0,0012.56,0004.91,0003.65
2022-06-12 07:50:00,,0821.1,5.00,0.00,29.2,27.4,00.0,38.1,31.0,16.1,0000.0,0012.94,0004.96,0003.66
2022-06-12 07:51:00,,0821.1,4.99,0.00,29.1,27.5,00.0,38.1,31.0,16.3,0000.0,0012.27,0004.95,0003.66
2022-06-12 07:52:00,,0821.1,5.01,0.00,29.1,27.6,00.0,38.1,31.0,16.3,0000.0,0012.34,0004.98,0003.66
2022-06-12 07:53:00,,0821.1,5.01,0.00,29.2,27.8,00.0,38.1,31.0,16.2,0000.0,0012.73,0005.04,0003.66
2022-06-12 07:54:00,,0821.1,5.00,0.00,29.2,27.9,00.0,38.1,31.1,16.3,0000.0,0012.92,0005.07,0003.66
2022-06-12 07:55:00,,0821.1,4.99,0.00,29.2,28.0,00.0,38.1,31.1,16.2,0000.0,0012.64,0005.03,0003.66
2022-06-12 07:56:00,,0821.2,5.00,0.00,29.2,28.1,00.0,38.1,31.1,16.1,0000.0,0013.22,0005.01,0003.65
2022-06-12 07:57:00,,0821.1,4.99,0.00,29.2,28.1,00.0,38.1,31.2,16.1,0000.0,0013.89,0005.03,0003.66
2022-06-12 07:58:00,,0821.1,5.01,0.00,29.2,28.2,00.0,38.1,31.2,16.0,0000.0,0013.98,0005.06,0003.65
2022-06-12 07:59:00,,0821.2,5.00,0.00,29.3,28.3,00.0,38.1,31.2,16.1,0000.0,0013.96,0005.03,0003.64
